[[{"header":{"parameterUnit":"m.s-1","parameterCategory":1,"la1":30.2992,"la2":30.254,"lo1":-89.0895,"lo2":-89.0443,"dy":0.0025,"dx":0.0025,"nx":19,"ny":19,"refTime":"2026-05-10T03:00:00:Z","depth":0,"parameterNumber":2,"parameterNumberName":"U-component_of_WINDS"},"data":[0,0,0,-0.8374,-0.8375,-0.8418,-0.8419,-0.8481,-0.8482,0,0,0,0,0,0,0,0,0,0,0,-0.8364,-0.8364,-0.8373,-0.8375,-0.8418,-0.8419,-0.8481,-0.8482,0,0,0,0,0,0,0,0,0,0,0,-0.8363,-0.8364,-0.8365,-0.8375,-0.8418,-0.8419,-0.8481,-0.8446,0,0,0,0,0,0,0,0,0,0,-0.8402,-0.8396,-0.8364,-0.8365,-0.8375,-0.8418,-0.8419,-0.8444,-0.8448,-0.8464,0,-0.8478,0,-0.8481,-0.8486,-0.8487,0,0,0,-0.8373,-0.8392,-0.8401,-0.8365,-0.8375,-0.8418,-0.8398,-0.8446,-0.8451,-0.8469,-0.8479,-0.8481,-0.8482,-0.8487,-0.8487,-0.8584,-0.8584,0,0,-0.837,-0.8373,-0.8398,-0.8404,-0.8397,-0.8397,-0.8399,-0.8449,-0.846,-0.8479,-0.8482,-0.8483,-0.8487,-0.8488,-0.8583,-0.8584,0,0,0,-0.8365,-0.8372,-0.8379,-0.8402,-0.8409,-0.8398,-0.8401,-0.8458,-0.846,-0.8483,-0.8484,-0.8488,-0.8489,-0.8583,-0.8584,-0.8613,0,0,0,-0.8363,-0.8368,-0.8378,-0.8381,-0.8409,-0.8434,-0.8409,-0.8456,-0.8462,-0.8483,-0.8488,-0.8489,-0.8582,-0.8583,-0.8611,-0.8627,0,0,0,-0.836,-0.8368,-0.8375,-0.8381,-0.84,-0.8433,-0.8438,-0.8458,-0.8463,-0.8487,-0.8489,-0.8582,-0.8583,-0.8609,-0.8624,-0.8654,0,0,0,-0.8357,-0.8401,-0.8376,-0.8425,-0.8399,-0.8451,-0.8438,-0.8476,-0.85,-0.8488,-0.8582,-0.8583,-0.8609,-0.8622,-0.8652,-0.868,-0.8692,0,0,-0.8415,-0.8408,-0.8437,-0.8416,-0.8472,-0.8444,-0.8505,-0.8525,-0.8525,-0.8564,-0.8567,-0.8612,-0.8624,-0.8654,-0.8756,-0.8765,0,0,0,-0.8457,-0.8478,-0.8492,-0.8515,-0.8531,-0.8546,-0.8555,-0.8563,-0.8596,-0.8545,-0.863,-0.8638,-0.8655,-0.8668,-0.8676,-0.8691,-0.8589,-0.8589,-0.8589,-0.8543,-0.854,-0.8588,-0.859,-0.8613,-0.8622,-0.8641,-0.8653,-0.8643,-0.8663,-0.8675,-0.8737,-0.8753,-0.8759,-0.8775,-0.8689,-0.8689,-0.869,-0.869,-0.8628,-0.8657,-0.8643,-0.8685,-0.8682,-0.8717,-0.8728,-0.8721,-0.8754,-0.8728,-0.8743,-0.8716,-0.8769,-0.8783,-0.8692,-0.8691,-0.8691,-0.8691,-0.8691,-0.8685,-0.8698,-0.8706,-0.8739,-0.8765,-0.8766,-0.8798,-0.8794,-0.8791,-0.8806,-0.8818,-0.8818,-0.8817,-0.8812,-0.8812,-0.8812,-0.8812,-0.8812,-0.8813,-0.8741,-0.8748,-0.8776,-0.8796,-0.881,-0.8829,-0.8839,-0.8854,-0.8869,-0.8863,-0.8863,-0.8853,-0.8775,-0.8756,-0.8816,-0.8815,-0.8815,-0.8815,-0.8814,-0.8829,-0.8808,-0.885,-0.8865,-0.8889,-0.8915,-0.8909,-0.8939,-0.895,-0.8967,-0.8953,-0.8895,-0.8889,-0.8883,-0.8867,-0.8952,-0.8952,-0.8952,-0.8953,-0.8877,-0.8873,-0.8916,-0.8939,-0.8962,-0.8961,-0.901,-0.9018,-0.9024,-0.9031,-0.9018,-0.8997,-0.899,-0.8988,-0.8979,-0.8965,-0.9073,-0.9073,-0.9073,-0.8932,-0.893,-0.8972,-0.8976,-0.8995,-0.9011,-0.9057,-0.9086,-0.9088,-0.9078,-0.9037,-0.9032,-0.8997,-0.8986,-0.8976,-0.8962,-0.8935,0,0]},{"header":{"parameterUnit":"m.s-1","parameterCategory":1,"la1":30.2992,"la2":30.254,"lo1":-89.0895,"lo2":-89.0443,"dy":0.0025,"dx":0.0025,"nx":19,"ny":19,"refTime":"2026-05-10T03:00:00:Z","depth":0,"parameterNumber":3,"parameterNumberName":"V-component_of_WINDS"},"data":[0,0,0,0.5878,0.5879,0.5912,0.5912,0.5957,0.5958,0,0,0,0,0,0,0,0,0,0,0,0.5871,0.5872,0.5878,0.5879,0.5912,0.5912,0.5957,0.5958,0,0,0,0,0,0,0,0,0,0,0,0.5871,0.5872,0.5872,0.5879,0.5912,0.5912,0.5957,0.5931,0,0,0,0,0,0,0,0,0,0,0.5899,0.5895,0.5872,0.5872,0.588,0.5912,0.5912,0.593,0.5933,0.5944,0,0.5956,0,0.5958,0.5961,0.5961,0,0,0,0.5877,0.5893,0.5899,0.5872,0.588,0.5912,0.5896,0.5931,0.5935,0.5948,0.5956,0.5958,0.5958,0.5961,0.5962,0.6038,0.6038,0,0,0.5875,0.5879,0.5897,0.5901,0.5897,0.5895,0.5897,0.5933,0.5942,0.5957,0.5959,0.5959,0.5962,0.5962,0.6037,0.6038,0,0,0,0.5871,0.5878,0.5883,0.59,0.5905,0.5896,0.5899,0.5941,0.5942,0.5959,0.596,0.5962,0.5963,0.6037,0.6037,0.6064,0,0,0,0.587,0.5875,0.5882,0.5885,0.5905,0.5923,0.5905,0.594,0.5944,0.5959,0.5962,0.5963,0.6036,0.6037,0.6063,0.6077,0,0,0,0.5868,0.5875,0.5881,0.5885,0.5899,0.5923,0.5926,0.594,0.5944,0.5961,0.5963,0.6036,0.6037,0.6061,0.6074,0.6098,0,0,0,0.5867,0.5904,0.5881,0.5922,0.5899,0.5939,0.5926,0.5956,0.5974,0.5962,0.6036,0.6037,0.606,0.6072,0.6097,0.612,0.613,0,0,0.5915,0.591,0.5933,0.5914,0.596,0.5934,0.5983,0.5996,0.5994,0.6023,0.6025,0.6063,0.6074,0.6098,0.6183,0.6191,0,0,0,0.595,0.5967,0.5978,0.5996,0.6007,0.6018,0.6023,0.6027,0.6052,0.601,0.6078,0.6084,0.6098,0.6109,0.6116,0.6128,0.6042,0.6042,0.6042,0.6023,0.6019,0.6058,0.6058,0.6076,0.6081,0.6094,0.6102,0.6092,0.6108,0.6117,0.6169,0.6182,0.6187,0.62,0.6128,0.6128,0.6128,0.6129,0.6094,0.6118,0.6104,0.6138,0.6133,0.6161,0.6167,0.6159,0.6184,0.6162,0.6174,0.6151,0.6196,0.6207,0.6131,0.613,0.613,0.613,0.613,0.6142,0.6153,0.6158,0.6184,0.6204,0.6202,0.6227,0.6222,0.6217,0.6229,0.6238,0.6238,0.6237,0.6233,0.6234,0.6234,0.6234,0.6234,0.6234,0.6191,0.6196,0.6218,0.6233,0.6244,0.6257,0.6263,0.6273,0.6283,0.6277,0.6277,0.6267,0.6201,0.6185,0.6237,0.6236,0.6236,0.6236,0.6236,0.6265,0.6248,0.6282,0.6293,0.631,0.6331,0.6323,0.6345,0.6353,0.6365,0.6351,0.6304,0.6298,0.6292,0.6279,0.6352,0.6352,0.6352,0.6352,0.6307,0.6303,0.6337,0.6355,0.6372,0.6369,0.6407,0.6412,0.6413,0.6418,0.6406,0.6388,0.6383,0.638,0.6373,0.636,0.6452,0.6452,0.6452,0.6353,0.6351,0.6385,0.6387,0.64,0.6411,0.6448,0.6469,0.6466,0.6456,0.6422,0.6417,0.6388,0.6379,0.6368,0.6357,0.6335,0,0]}]]